Location: Ariel
(45.9570°N, 122.5700°W)
Time: 14:36:13
(UTC-07:00)

Tiros 1 - Pass Details

Date: 29 July 2019
Orbit: 630 x 664 km, 48.4° (Epoch: 18 August)

Event Time Altitude Azimuth Distance (km) Brightness Sun altitude
Rises 15:29:16 0° 289° (WNW) 2,998 10.9 51.4°
Reaches altitude 10° 15:31:39 10° 285° (WNW) 2,084 10.3 51.0°
Maximum altitude 15:36:21 54° 209° (SSW) 808 9.5 50.4°
Drops below altitude 10° 15:41:01 10° 133° (SE) 2,073 9.7 49.7°
Sets 15:43:23 0° 129° (SE) 2,980 10.4 49.3°
